Location: Rio de Janeiro
(22.9068°S, 43.1729°W)
Time: 12:42:21
(UTC-03:00)

Envisat - Pass Details

Date: 12 December 2023
Orbit: 762 x 764 km, 98.3° (Epoch: 03 March)

Event Time Altitude Azimuth Distance (km) Brightness Sun altitude
Exits shadow 02:59:41 67° 329° (NNW) 833 2.9 -24.2°
Maximum altitude 03:00:14 74° 282° (WNW) 801 2.8 -24.1°
Drops below altitude 10° 03:05:20 10° 197° (SSW) 2,318 5.8 -23.2°
Sets 03:07:40 0° 194° (SSW) 3,250 6.6 -22.8°
